Pellston, MI

10:07 AM EDT on August 22, 2017 (GMT -0400)
Pellston Regional Airport Of Emmet County

Weather History for KPLN - June, 2013

Change the Weather History Date:

Saturday, June 15, 2013

  Actual Average Record
Temperature  
Mean Temperature 57 °F -  
Max Temperature 75 °F 74 °F 90 °F (1954)
Min Temperature 39 °F 49 °F 33 °F (1948)
Degree Days  
Heating Degree Days 8    
Growing Degree Days 7 (Base 50)    
Moisture  
Dew Point 46 °F    
Average Humidity 66    
Maximum Humidity 96    
Minimum Humidity 29    
Precipitation  
Precipitation 0.04 in - - ()
Sea Level Pressure  
Sea Level Pressure 29.97 in    
Wind  
Wind Speed 2 mph (WSW)    
Max Wind Speed 10 mph    
Max Gust Speed -    
Visibility 10 miles    
Events Rain    
Averages and records for this station are not official NWS values.
T = Trace of Precipitation, MM = Missing Value Source: NWS Daily Summary

Daily Weather History Graph

Daily Weather History Graph

Search for Another Location

Airport or City:

Trip Planner

Search our weather history database for the weather conditions in past years. The results will help you decide how hot, cold, wet, or windy it might be!

Date:

Astronomy

Jun. 15, 2013 Rise Set
Actual Time 5:49 AM EDT 9:30 PM EDT
Civil Twilight 5:11 AM EDT 10:08 PM EDT
Nautical Twilight 4:20 AM EDT 10:59 PM EDT
Astronomical Twilight 3:11 AM EDT 12:08 AM EDT
Moon 12:41 PM EDT (6/15) 12:48 AM EDT (6/15)
Length of Visible Light 16h 56m
Length of Day
15h 40m
Waxing Crescent, 39% of the Moon is Illuminated
Jun 15
Waxing Crescent
Jun 16
First Quarter
Jun 23
Full
Jun 30
Last Quarter
Jul 8
New

Hourly Weather History & Observations

Time (EDT) Temp. Dew Point Humidity Pressure Visibility Wind Dir Wind Speed Gust Speed Precip Events Conditions
12:54 AM 44.1 °F 39.9 °F 85% 30.05 in 10.0 mi Calm Calm - N/A   Clear
1:54 AM 39.9 °F 37.9 °F 93% 30.04 in 10.0 mi Calm Calm - N/A   Clear
2:54 AM 39.0 °F 37.0 °F 93% 30.04 in 10.0 mi Calm Calm - N/A   Clear
3:54 AM 41.0 °F 37.9 °F 89% 30.04 in 10.0 mi Calm Calm - N/A   Clear
4:54 AM 44.1 °F 41.0 °F 89% 30.03 in 10.0 mi Calm Calm - N/A   Clear
5:54 AM 45.0 °F 41.0 °F 86% 30.03 in 10.0 mi Calm Calm - N/A   Clear
6:54 AM 46.9 °F 41.0 °F 80% 30.04 in 10.0 mi Calm Calm - N/A   Partly Cloudy
7:54 AM 51.1 °F 43.0 °F 74% 30.04 in 10.0 mi Calm Calm - N/A   Partly Cloudy
8:54 AM 55.9 °F 42.1 °F 60% 30.05 in 10.0 mi Calm Calm - N/A   Mostly Cloudy
9:54 AM 59.0 °F 39.9 °F 49% 30.04 in 10.0 mi Calm Calm - N/A   Scattered Clouds
10:54 AM 64.9 °F 41.0 °F 42% 30.01 in 10.0 mi Calm Calm - N/A   Clear
11:54 AM 66.9 °F 44.1 °F 44% 29.99 in 10.0 mi Calm Calm - N/A   Clear
12:54 PM 68.0 °F 36.0 °F 31% 29.99 in 10.0 mi SSW 3.5 mph - 0.00 in   Mostly Cloudy
1:54 PM 72.0 °F 39.0 °F 30% 29.99 in 10.0 mi WSW 8.1 mph - N/A   Clear
2:54 PM 73.9 °F 39.9 °F 29% 29.97 in 10.0 mi SSW 4.6 mph - N/A   Mostly Cloudy
3:54 PM 75.0 °F 44.1 °F 33% 29.95 in 10.0 mi SSW 6.9 mph - N/A   Clear
4:54 PM 73.9 °F 46.0 °F 37% 29.96 in 10.0 mi SW 10.4 mph - N/A   Mostly Cloudy
5:54 PM 70.0 °F 50.0 °F 49% 29.94 in 10.0 mi West 4.6 mph - N/A   Overcast
6:54 PM 70.0 °F 53.1 °F 55% 29.91 in 10.0 mi South 3.5 mph - N/A   Overcast
7:54 PM 69.1 °F 54.0 °F 58% 29.88 in 10.0 mi ESE 3.5 mph - N/A   Mostly Cloudy
8:54 PM 69.1 °F 55.0 °F 61% 29.86 in 10.0 mi Calm Calm - N/A   Overcast
9:54 PM 63.0 °F 59.0 °F 87% 29.84 in 10.0 mi SE 4.6 mph - 0.01 in Rain Light Rain
10:54 PM 62.1 °F 60.1 °F 93% 29.85 in 6.0 mi West 3.5 mph - 0.03 in Rain Light Rain
11:25 PM 62.6 °F 60.8 °F 94% 29.85 in 8.0 mi NNW 4.6 mph - 0.00 in Rain Light Rain
11:54 PM 60.1 °F 59.0 °F 96% 29.86 in 9.0 mi WNW 9.2 mph - 0.00 in Rain Light Rain
11:59 PM 60.8 °F 57.2 °F 88% 29.85 in 8.0 mi NW 6.9 mph - 0.00 in Rain Light Rain